OSCAR 7 (AO-7) 1 07530U 74089B 25348.32063488 -.00000025 00000+0 13119-3 0 9994 2 07530 101.9966 354.6050 0012375 123.6669 250.4635 12.53694194337353 PHASE 3B (AO-10) 1 14129U 83058B 25347.85588276 .00000193 00000+0 00000+0 0 9992 2 14129 26.0541 250.9916 6064913 63.9418 345.2099 2.05871297291677 UOSAT 2 (UO-11) 1 14781U 84021B 25348.33780495 .00001989 00000+0 21111-3 0 9992 2 14781 97.7811 311.3415 0009288 77.7536 282.4721 14.90150197229596 LUSAT (LO-19) 1 20442U 90005G 25348.29062716 .00000220 00000+0 95330-4 0 9998 2 20442 98.8961 359.9004 0012106 33.0050 327.1887 14.34045367875896 EYESAT A (AO-27) 1 22825U 93061C 25348.18739127 .00000176 00000+0 84017-4 0 9995 2 22825 98.7145 50.4581 0007324 284.8658 75.1713 14.30877362680543 ITAMSAT (IO-26) 1 22826U 93061D 25348.15166056 .00000201 00000+0 92888-4 0 9992 2 22826 98.7094 50.3217 0007826 266.3769 93.6519 14.31298251680844 RADIO ROSTO (RS-15) 1 23439U 94085A 25348.28792306 .00000079 00000+0 34519-2 0 9995 2 23439 64.8156 242.2470 0149743 38.2148 322.9280 11.27583600275056 JAS-2 (FO-29) 1 24278U 96046B 25348.25173106 -.00000029 00000+0 79702-5 0 9996 2 24278 98.5461 217.1843 0349214 216.0465 141.6667 13.53262922448159 TECHSAT 1B (GO-32) 1 25397U 98043D 25347.90094553 .00000146 00000+0 83392-4 0 9995 2 25397 98.9921 331.1398 0002026 55.4203 304.7166 14.24377408424954 ISS (ZARYA) 1 25544U 98067A 25348.21787239 .00012052 00000+0 22198-3 0 9995 2 25544 51.6305 135.1599 0003264 246.9077 113.1568 15.49586484543084 PCSAT (NO-44) 1 26931U 01043C 25348.27290776 .00000271 00000+0 13229-3 0 9990 2 26931 67.0515 2.5137 0007428 269.8496 90.1755 14.31855849263972 SAUDISAT 1C (SO-50) 1 27607U 02058C 25348.28963521 .00002628 00000+0 33096-3 0 9996 2 27607 64.5543 340.8085 0072295 296.3156 63.0536 14.82399197237048 CUTE-1 (CO-55) 1 27844U 03031E 25348.27613775 .00000507 00000+0 23886-3 0 9993 2 27844 98.6765 354.1593 0009710 9.0596 351.0757 14.24180797165355 CUBESAT XI-IV (CO-57) 1 27848U 03031J 25347.96224071 .00000433 00000+0 20957-3 0 9993 2 27848 98.6792 353.7104 0009935 27.4415 332.7286 14.23488271165029 MOZHAETS 4 (RS-22) 1 27939U 03042A 25348.35119626 .00001675 00000+0 26897-3 0 9997 2 27939 98.3368 162.5940 0012189 130.8588 347.4266 14.72977499188334 CUBESAT XI-V 1 28895U 05043F 25348.34508436 .00002428 00000+0 39530-3 0 9997 2 28895 98.2718 135.4498 0015341 73.5062 286.7829 14.71908884 74553 CUTE-1.7+APD II (CO-65) 1 32785U 08021C 25348.23224500 .00007023 00000+0 47205-3 0 9998 2 32785 97.8077 321.3419 0007893 304.4990 55.5491 15.07067785957314 SEEDS II (CO-66) 1 32791U 08021J 25347.95320282 .00018733 00000+0 74560-3 0 9991 2 32791 97.7441 333.1406 0001456 198.6890 161.4294 15.25310297958984 YUBILEINY (RS-30) 1 32953U 08025A 25348.32015266 .00000076 00000+0 47214-3 0 9997 2 32953 82.5018 110.4398 0018960 357.6202 2.4785 12.43172296796727 KKS-1 (KISEKI) 1 33499U 09002H 25348.29450956 .00002211 00000+0 28249-3 0 9994 2 33499 98.1174 262.9133 0008227 159.4158 200.7387 14.82441645908797 SWISSCUBE 1 35932U 09051B 25348.20814052 .00001810 00000+0 37094-3 0 9996 2 35932 98.4143 247.8147 0008073 70.5000 289.7072 14.61964143862129 BEESAT-1 1 35933U 09051C 25348.26265448 .00001585 00000+0 33093-3 0 9996 2 35933 98.4076 247.8790 0006558 82.1593 278.0352 14.61282680862177 ITUPSAT1 1 35935U 09051E 25348.29908770 .00001446 00000+0 31115-3 0 9992 2 35935 98.4166 247.2934 0008730 90.8648 269.3552 14.60037692861752 XIWANG-1 (HOPE-1) 1 36122U 09072B 25348.26163128 -.00000340 00000+0 -77486-3 0 9996 2 36122 100.3774 300.2724 0007049 299.2804 60.7604 13.16431330768672 O/OREOS (USA 219) 1 37224U 10062C 25348.10093940 .00003911 00000+0 38421-3 0 9999 2 37224 71.9696 139.2826 0013178 53.9393 306.2995 14.92686515 89010 JUGNU 1 37839U 11058B 25348.36731265 .00000544 00000+0 14433-3 0 9990 2 37839 19.9625 351.2147 0018553 194.5611 194.1919 14.13697650732846 SRMSAT 1 37841U 11058D 25348.35795935 .00000479 00000+0 11649-3 0 9999 2 37841 19.9714 98.1565 0011795 331.3293 63.8110 14.11512094731678 STRAND-1 1 39090U 13009E 25348.06219329 .00000503 00000+0 18394-3 0 9993 2 39090 98.3822 167.9198 0009697 67.2922 292.9289 14.37006327670473 ZACUBE-1 (TSHEPISOSAT) 1 39417U 13066B 25348.32710162 .00005124 00000+0 41909-3 0 9991 2 39417 97.8060 304.8748 0041948 141.9606 218.4592 14.99105726653013 GOMX-1 1 39430U 13066Q 25348.33249398 .00003591 00000+0 55187-3 0 9994 2 39430 97.6594 195.3585 0129594 311.4596 47.5538 14.68596580642776 CUBEBUG-2 (LO-74) 1 39440U 13066AA 25348.34875202 .00005436 00000+0 52503-3 0 9994 2 39440 97.8708 292.0182 0057916 280.4037 79.0657 14.91994712649412 FUNCUBE-1 (AO-73) 1 39444U 13066AE 25347.85101564 .00010449 00000+0 70805-3 0 9991 2 39444 97.8061 311.1428 0040477 112.1902 248.3627 15.05982595651738 UWE-3 1 39446U 13066AG 25347.82535747 .00006468 00000+0 58083-3 0 9994 2 39446 97.8476 298.1761 0049542 215.5638 144.2278 14.95117524649867 UNISAT-6 1 40012U 14033C 25348.36156890 .00004187 00000+0 46703-3 0 9990 2 40012 97.7611 139.7809 0045472 318.6846 41.0933 14.86815727618683 DUCHIFAT-1 1 40021U 14033M 25348.07446960 .00039324 00000+0 95934-3 0 9999 2 40021 98.0791 20.0281 0007337 30.9328 329.2348 15.40748930627053 QB50P1 1 40025U 14033R 25347.94126424 .00011811 00000+0 64439-3 0 9995 2 40025 98.0969 341.6128 0010544 131.3717 228.8422 15.14485350624956 LILACSAT-2 1 40908U 15049K 25348.29086903 .00017841 00000+0 38243-3 0 9992 2 40908 97.4919 13.7208 0007335 191.1761 168.9325 15.44783910567146 FOX-1A (AO-85) 1 40967U 15058D 25347.74844250 .00005657 00000+0 51163-3 0 9991 2 40967 64.7745 134.7190 0134771 129.6114 231.6988 14.89671103 85935 CAS-2T & KS-1Q 1 41847U 16066G 25348.21658955 .00001494 00000+0 22051-3 0 9996 2 41847 98.4035 60.9423 0343140 330.6776 27.5534 14.44135064478092 RADFXSAT (FOX-1B) 1 43017U 17073E 25348.17003183 .00012010 00000+0 56805-3 0 9998 2 43017 97.4956 214.3338 0159325 245.4965 112.9580 15.08903713437457 DIWATA-2B 1 43678U 18084H 25348.32038787 .00003977 00000+0 32952-3 0 9998 2 43678 98.1027 171.8465 0007640 42.5647 317.6166 14.99447391388509 ES'HAIL 2 1 43700U 18090A 25348.20756304 .00000162 00000+0 00000+0 0 9998 2 43700 0.0174 337.8893 0000989 293.5357 272.2474 1.00269384 25827 FOX-1CLIFF (AO-95) 1 43770U 18099N 25348.10790118 .00014042 00000+0 61823-3 0 9990 2 43770 97.4683 44.3801 0008280 280.7175 79.3129 15.21924322385028 ITASAT 1 43786U 18099AE 25348.14997593 .00008866 00000+0 46274-3 0 9997 2 43786 97.4331 38.4318 0011841 278.2162 81.7728 15.16101418384845 JY1SAT (JO-97) 1 43803U 18099AX 25348.12633439 .00018334 00000+0 69538-3 0 9990 2 43803 97.4428 45.9382 0005957 197.0299 163.0741 15.26902019385326 UWE-4 1 43880U 18111E 25348.32887303 .00027508 00000+0 82276-3 0 9990 2 43880 97.5854 264.8968 0007250 269.8517 90.1895 15.34506849382323 TIANYAN 01 1 44881U 19093C 25348.31646575 .00001868 00000+0 21894-3 0 9995 2 44881 97.7758 59.9127 0013201 341.3810 18.6921 14.86111276323956 RS-44 & BREEZE-KM R/B 1 44909U 19096E 25348.34316167 .00000014 00000+0 15527-4 0 9992 2 44909 82.5211 102.5432 0217096 216.3301 142.2897 12.79746116278706 SALSAT 1 46495U 20068K 25347.97394729 .00010073 00000+0 39011-3 0 9992 2 46495 97.8786 335.3129 0008978 224.0796 135.9726 15.26353387287073 XW-3 (CAS-9) 1 50466U 21131B 25348.31646192 .00001152 00000+0 37113-3 0 9999 2 50466 98.5047 76.7295 0003133 300.6065 59.4814 14.41116843208488 GREENCUBE (IO-117) 1 53109U 22080E 25347.04311871 -.00000003 00000+0 00000+0 0 9998 2 53109 70.1576 2.9754 0009015 327.4898 32.5206 6.42583237 80106 STRATOSAT-TK 1 (RS52S) 1 57167U 23091B 25348.25064583 .00309922 00000+0 17752-2 0 9994 2 57167 97.5199 60.8301 0004904 317.3928 42.6957 15.77956541137112 UMKA 1 (RS40S) 1 57172U 23091G 25348.32405442 .00007425 00000+0 36543-3 0 9994 2 57172 97.5345 42.7817 0014593 48.2015 312.0463 15.18197440135938 CUBESX-HSE 3 (RS42S) 1 57178U 23091N 25348.31964964 .00014869 00000+0 58210-3 0 9993 2 57178 97.5378 47.0202 0012740 31.3343 328.8652 15.25836327136180 MONITOR-3 (RS58S) 1 57180U 23091Q 25348.32269314 .00012421 00000+0 52249-3 0 9992 2 57180 97.5371 45.7175 0013619 35.3654 324.8483 15.23453878136109 MONITOR-4 (RS57S) 1 57182U 23091S 25348.37775443 .00012315 00000+0 51700-3 0 9997 2 57182 97.5366 45.7339 0013647 35.7090 324.5057 15.23525284136112 MONITOR-2 (RS39S) 1 57184U 23091U 25348.33753287 .00006081 00000+0 31271-3 0 9991 2 57184 97.5371 42.7998 0012728 41.1662 319.0529 15.16755344135917 SVYATOBOR 1 (RS60S) 1 57187U 23091X 25348.26690446 .00010359 00000+0 44498-3 0 9991 2 57187 97.5377 46.2830 0010846 29.2385 330.9456 15.22822210136138 VIZARD-METEO (RS38S) 1 57189U 23091Z 25348.34170030 .00016918 00000+0 59434-3 0 9997 2 57189 97.5368 49.7651 0008639 17.5826 342.5711 15.29425945136376 NANOZOND 1 (RS49S) 1 57190U 23091AA 25348.35725924 .00074604 00000+0 11675-2 0 9998 2 57190 97.5288 58.3041 0004458 353.8004 6.3193 15.53490444136953 POLYTECH-UNIVERSE 3 (R*) 1 57191U 23091AB 25348.32140394 .00006645 00000+0 33917-3 0 9992 2 57191 97.5344 42.2972 0017479 55.2520 305.0356 15.16920761135908 UTMN 2 (RS27S) 1 57203U 23091AP 25348.31338667 .00014398 00000+0 54866-3 0 9997 2 57203 97.5370 48.4155 0009471 21.5117 338.6517 15.26776854136289 KUZGTU 1 (RS47S) 1 57217U 23091AV 25348.23845475 .00013880 00000+0 55865-3 0 9998 2 57217 97.5353 46.2194 0012970 34.2742 325.9330 15.24922165136140 SONATE-2 1 59112U 24043Q 25348.33679302 .00031093 00000+0 65471-3 0 9997 2 59112 97.5320 124.6470 0009062 155.8151 204.3525 15.45180617 99224 MESAT1 1 60209U 24125G 25348.14745085 .00034486 00000+0 69537-3 0 9994 2 60209 97.2527 198.5202 0014279 172.5169 187.6297 15.46360173 80826 OOV-CUBE (TUBSAT-30) 1 60240U 24128F 25348.01204863 .00003852 00000+0 30081-3 0 9997 2 60240 61.9940 150.7545 0058450 94.5159 266.2611 15.01619270 78297 COLIBRI-S (RS67S) 1 61746U 24199M 25348.31360122 .00021081 00000+0 54024-3 0 9998 2 61746 97.3263 216.2460 0008498 224.3741 135.6825 15.39360082108892 HORS 3 (RS81S) 1 61753U 24199U 25348.30545376 .00028440 00000+0 65180-3 0 9992 2 61753 97.3234 216.8530 0006432 229.5284 130.5404 15.42702166108947 HORS 4 (RS82S) 1 61754U 24199V 25348.30353545 .00031669 00000+0 68346-3 0 9992 2 61754 97.3215 217.2818 0006483 227.7869 132.2830 15.44470122108977 HORIZON (RS59S) 1 61757U 24199Y 25348.35576633 .00061461 00000+0 94936-3 0 9992 2 61757 97.3218 219.4538 0005744 201.7488 158.3523 15.53897192109119 ARCTICSAT 1 (RS74S) 1 61762U 24199AD 25348.35345988 .00054564 00000+0 89124-3 0 9994 2 61762 97.3226 219.3011 0006014 197.9392 162.1650 15.52372109109108 SIT-2086 1 61764U 24199AF 25348.30883128 .00035132 00000+0 80173-3 0 9999 2 61764 97.3233 217.6100 0006340 219.3493 140.7295 15.42788383105838 MORDOVIA-IOT (RS50S) 1 61765U 24199AG 25348.30601764 .00161734 00000+0 13249-2 0 9991 2 61765 97.3124 221.9870 0004058 160.7414 199.4003 15.70003205106132 RUZAEVKA 390 (RS44S) 1 61766U 24199AH 25348.35215003 .00100151 00000+0 11316-2 0 9993 2 61766 97.3174 221.0216 0004215 179.6863 180.4398 15.62133284106077 HYPERVIEW 1G (RS66S) 1 61772U 24199AP 25348.35890971 .00043253 00000+0 82493-3 0 9997 2 61772 97.3214 217.8139 0007966 229.4942 130.5615 15.48006353105868 ALTAIR (RS65S) 1 61779U 24199AW 25348.30688166 .00011761 00000+0 37243-3 0 9992 2 61779 97.3265 214.0829 0012312 247.7998 112.1939 15.32824293108751 ASRTU-1 (AO-123) 1 61781U 24199AY 25348.30558229 .00012306 00000+0 39969-3 0 9994 2 61781 97.3255 213.7383 0012830 249.2705 110.7162 15.31993641105585 TUSUR GO (RS78S) 1 61782U 24199AZ 25348.35708397 .00065034 00000+0 10282-2 0 9995 2 61782 97.3178 218.5443 0006717 223.9321 136.1399 15.53230182105919 SAMSAT-IONOSPHERE (RS7*) 1 61784U 24199BB 25348.30475137 .00032472 00000+0 73392-3 0 9997 2 61784 97.3229 216.5613 0009776 236.6988 123.3324 15.43063297108923 RTU MIREA 1 (RS51S) 1 61785U 24199BC 25348.32065456 .00034209 00000+0 74338-3 0 9990 2 61785 97.3225 216.8339 0009403 234.1349 125.9027 15.44225664105798 HADES-R 1 62690U 25009CK 25348.17875069 .00161946 00000+0 20039-2 0 9996 2 62690 97.3868 70.8544 0001171 260.3558 99.7566 15.59548784 51007 TEVEL2-4 1 63213U 25052D 25348.15771417 .00018274 00000+0 68816-3 0 9997 2 63213 97.4107 239.9763 0005012 60.8877 299.2864 15.27143370 41804 TEVEL2-5 1 63214U 25052E 25347.70455220 .00019693 00000+0 74335-3 0 9998 2 63214 97.4102 239.5140 0005012 62.1529 298.0217 15.27048507 41731 TEVEL2-6 1 63215U 25052F 25348.17059502 .00018694 00000+0 70647-3 0 9996 2 63215 97.4107 239.9651 0005118 61.0127 299.1624 15.27020110 41809 TEVEL2-1 1 63217U 25052H 25348.21357714 .00018481 00000+0 70538-3 0 9992 2 63217 97.4082 239.8175 0005296 69.2714 290.9092 15.26692447 41807 TEVEL2-3 1 63218U 25052J 25348.27829956 .00018469 00000+0 70440-3 0 9999 2 63218 97.4082 239.8875 0005346 69.4294 290.7518 15.26717126 41810 TEVEL2-2 1 63219U 25052K 25348.27988799 .00018471 00000+0 70491-3 0 9990 2 63219 97.4082 239.8834 0005351 70.0980 290.0835 15.26696255 41816 TEVEL2-9 1 63237U 25052AD 25348.24444577 .00018264 00000+0 72859-3 0 9998 2 63237 97.4139 239.5528 0009274 78.4480 281.7799 15.25194673 41778 TEVEL2-7 1 63238U 25052AE 25347.66797492 .00018627 00000+0 74688-3 0 9996 2 63238 97.4144 238.9560 0009362 79.3950 280.8342 15.25018623 41688 TEVEL2-8 1 63239U 25052AF 25348.26416945 .00017779 00000+0 71317-3 0 9998 2 63239 97.4142 239.5308 0009369 78.2797 281.9492 15.25014733 41774 HADES-ICM 1 63492U 25052BN 25347.67165520 .00060178 00000+0 15174-2 0 9992 2 63492 97.4083 241.1938 0011547 72.8345 287.4164 15.39591975 41845 INNOSAT 16 (RS92S7) 1 64878U 25155C 25348.26281185 .00005495 00000+0 23775-3 0 9995 2 64878 97.4330 311.6187 0012924 112.5187 247.7419 15.22772417 52505 GEOSCAN 6 (RS92S6) 1 64879U 25155D 25348.31520653 .00012730 00000+0 50319-3 0 9992 2 64879 97.4332 312.0252 0010596 106.5805 253.6598 15.25571373 52537 GEOSCAN 1 (RS92S1) 1 64880U 25155E 25348.23909036 .00013440 00000+0 52684-3 0 9997 2 64880 97.4335 311.9797 0010555 107.0673 253.1722 15.25836841 52525 239ALFEROV (RS61S) 1 64881U 25155F 25348.26525202 .00016631 00000+0 63406-3 0 9999 2 64881 97.4341 312.1178 0010336 106.7671 253.4702 15.26717273 52530 GEOSCAN 2 (RS92S2) 1 64890U 25155Q 25348.33450647 .00013015 00000+0 50535-3 0 9999 2 64890 97.4330 312.1461 0009937 96.1995 264.0376 15.26168148 52546 GEOSCAN 5 (RS92S5) 1 64891U 25155R 25348.29480078 .00016411 00000+0 61920-3 0 9999 2 64891 97.4335 312.2090 0009001 110.6039 249.6166 15.27076444 52548 GEOSCAN 4 (RS92S4) 1 64892U 25155S 25348.29182159 .00015635 00000+0 58891-3 0 9999 2 64892 97.4338 312.2165 0009038 111.0978 249.1228 15.27144492 52545 GEOSCAN 3 (RS92S3) 1 64893U 25155T 25348.26094016 .00019637 00000+0 72204-3 0 9991 2 64893 97.4332 312.2515 0008818 113.0654 247.1516 15.27892559 52549 INNOSAT 3 (RS92S0) 1 64894U 25155U 25348.30170856 .00028848 00000+0 97981-3 0 9997 2 64894 97.4318 312.4910 0008771 112.1253 248.0920 15.30409785 52568